Location: Ash Swamp
(41.5170°N, 74.6157°W)
Time: 02:44:16
(UTC+00:00)

Cosmos 2016 Rocket - Pass Details

Date: 14 July 2020
Orbit: 948 x 999 km, 83.0° (Epoch: 14 August)

Event Time Altitude Azimuth Distance (km) Brightness Sun altitude
Exits shadow 07:07:35 38° 218° (SW) 1,422 4.3 -20.7°
Maximum altitude 07:09:51 61° 280° (W) 1,087 4.1 -20.5°
Drops below altitude 10° 07:16:01 10° 1° (N) 2,724 7.2 -19.9°
Sets 07:18:36 0° 5° (N) 3,683 8.1 -19.7°
